Home   Weather   Melvisharam   Past weeks
Flag for India

Past Weather in Melvisharam, Tamil Nadu, India — Yesterday and Last 2 Weeks

Now
86 °F

Passing clouds.


Feels Like: 99 °F
Forecast: 105 / 80 °F
Wind: 5 mph from Southwest

Location: Madras / Minambakkam

Current Time: May 22, 2019 at 4:32:58 am

Latest Report: May 22, 2019 at 3:30 am


Visibility: 4 mi

Pressure: 29.77 "Hg

Humidity: 79%

Dew Point: 79 °F

Location of MelvisharamLocation

Past Weather in Melvisharam — Graph

°F

Melvisharam Temperature Yesterday

Maximum temperature yesterday: 102 °F (at 12:00 pm)
Minimum temperature yesterday: 84 °F (at 5:30 am)
Average temperature yesterday: 92 °F

High & Low Weather Summary for the Past Weeks

 TemperatureHumidityPressure
High108 °F (May 7, 2:00 pm)89% (May 13, 4:00 am)29.83 "Hg (May 13, 4:00 am)
Low84 °F (May 9, 2:00 am)32% (May 9, 1:00 pm)29.59 "Hg (May 7, 3:30 pm)
Average92 °F66%29.74 "Hg
* Reported May 7 2:30 am — May 22 3:00 am, Melvisharam. Weather by CustomWeather, © 2019

Note: Actual official high and low records may vary slightly from our data, if they occured in-between our weather recording intervals... More about our weather records

Advertising

Melvisharam Weather History for the Previous 24 Hours

Scroll right to see more
 ConditionsComfort  
Time TempWeatherWind HumidityBarometerVisibility
3:00 am
Wed, May 22
86 °FPassing clouds.6 mph79%29.74 "Hg4 mi
2:30 am86 °FPassing clouds.7 mph79%29.74 "Hg4 mi
2:00 am88 °FPassing clouds.7 mph75%29.77 "Hg4 mi
1:30 am88 °FPassing clouds.7 mph75%29.77 "Hg4 mi
1:00 am88 °FPassing clouds.8 mph75%29.77 "Hg4 mi
12:30 am88 °FPassing clouds.8 mph75%29.77 "Hg4 mi
12:00 am88 °FPassing clouds.9 mph75%29.77 "Hg4 mi
11:30 pm
Tue, May 21
88 °FPassing clouds.9 mph75%29.77 "Hg4 mi
11:00 pm88 °FPassing clouds.9 mph79%29.80 "Hg4 mi
10:30 pm88 °FPassing clouds.9 mph79%29.80 "Hg4 mi
10:00 pm88 °FPassing clouds.12 mph79%29.80 "Hg4 mi
9:30 pm88 °FPassing clouds.12 mph79%29.80 "Hg4 mi
9:00 pm88 °FPassing clouds.13 mph79%29.80 "Hg4 mi
8:30 pm90 °FPassing clouds.10 mph75%29.77 "Hg4 mi
8:00 pm90 °FPassing clouds.12 mph71%29.74 "Hg4 mi
7:30 pm90 °FPassing clouds.13 mph71%29.74 "Hg4 mi
7:00 pm91 °FPassing clouds.10 mph63%29.71 "Hg4 mi
6:30 pm91 °FPassing clouds.13 mph59%29.71 "Hg4 mi
6:00 pm93 °FPassing clouds.13 mph56%29.71 "Hg5 mi
5:30 pm95 °FPassing clouds.13 mph53%29.71 "Hg5 mi
5:00 pm95 °FPassing clouds.8 mph53%29.71 "Hg5 mi
4:30 pm99 °FPassing clouds.8 mph47%29.71 "Hg5 mi
4:00 pm99 °FPassing clouds.8 mph47%29.71 "Hg6 mi
3:30 pm99 °FPassing clouds.8 mph47%29.71 "Hg6 mi
3:00 pm99 °FPassing clouds.8 mph50%29.71 "Hg6 mi
2:30 pm100 °FPassing clouds.15 mph47%29.71 "Hg6 mi
2:00 pm100 °FPassing clouds.15 mph47%29.74 "Hg6 mi
1:30 pm99 °FPassing clouds.15 mph50%29.74 "Hg6 mi
1:00 pm99 °FPassing clouds.16 mph53%29.77 "Hg6 mi
12:30 pm100 °FPassing clouds.10 mph50%29.77 "Hg6 mi
12:00 pm102 °FPassing clouds.12 mph33%29.77 "Hg6 mi
11:30 am100 °FPassing clouds.9 mph40%29.80 "Hg6 mi
11:00 am99 °FPassing clouds.12 mph42%29.80 "Hg6 mi
10:30 am99 °FPassing clouds.12 mph42%29.80 "Hg6 mi
10:00 am97 °FPassing clouds.12 mph47%29.80 "Hg5 mi
9:30 am95 °FPassing clouds.12 mph50%29.83 "Hg5 mi
9:00 am93 °FPassing clouds.12 mph59%29.83 "Hg5 mi
8:30 am91 °FPassing clouds.14 mph63%29.83 "Hg4 mi
8:00 am90 °FHaze.10 mph71%29.80 "Hg3 mi
7:30 am88 °FFog.10 mph75%29.80 "Hg3 mi
7:00 am86 °FFog.10 mph84%29.80 "Hg3 mi
6:30 am86 °FFog.7 mph79%29.77 "Hg3 mi
6:00 am84 °FFog.7 mph84%29.77 "Hg3 mi
5:30 am84 °FPassing clouds.8 mph84%29.77 "Hg4 mi
5:00 am86 °FPassing clouds.7 mph79%29.74 "Hg4 mi
4:30 am86 °FPassing clouds.8 mph84%29.74 "Hg4 mi
4:00 am86 °FPassing clouds.7 mph79%29.74 "Hg4 mi
Weather by CustomWeather, © 2019

See weather overview